EZY59WD EHAM-EGKK

Flight info

Callsign EZY59WD
Flight time 0h 49m
Altitude 24000
Route IDRID L980 ABNED Z344 AMRIV Q63 ARREK Y4 TEBRA
Aircraft A320/M-SDE3FGHIRWY/LB1

Departure

Time 2026-05-06 14:20
Airport Amsterdam Airport Schiphol (EHAM)

Arrival

Time 2026-05-06 15:09
Airport London Gatwick Airport (EGKK)
Time Latitude Longitude Altitude Speed Heading
2026-05-06 13:15 52.31045 4.75519 -1 ft 0 kts 148°
2026-05-06 14:08 52.31047 4.75516 -1 ft 1 kts 148°
2026-05-06 14:08 52.31062 4.75502 -1 ft 3 kts 152°
2026-05-06 14:09 52.31079 4.75486 -1 ft 3 kts 127°
2026-05-06 14:09 52.31083 4.75470 -1 ft 2 kts 73°
2026-05-06 14:09 52.31078 4.75446 -1 ft 1 kts 72°
2026-05-06 14:09 52.31078 4.75443 -1 ft 0 kts 72°
2026-05-06 14:12 52.31079 4.75451 -1 ft 2 kts 72°
2026-05-06 14:12 52.31092 4.75478 -1 ft 5 kts 42°
2026-05-06 14:13 52.31134 4.75501 -1 ft 8 kts
2026-05-06 14:13 52.31206 4.75493 -1 ft 12 kts 355°
2026-05-06 14:13 52.31305 4.75482 -1 ft 16 kts 356°
2026-05-06 14:13 52.31427 4.75471 -1 ft 19 kts 357°
2026-05-06 14:14 52.31507 4.75419 -1 ft 13 kts 288°
2026-05-06 14:14 52.31507 4.75284 -1 ft 12 kts 266°
2026-05-06 14:14 52.31502 4.75157 -1 ft 10 kts 266°
2026-05-06 14:14 52.31498 4.75046 -1 ft 9 kts 266°
2026-05-06 14:15 52.31494 4.74943 -1 ft 10 kts 266°
2026-05-06 14:15 52.31491 4.74837 -1 ft 9 kts 267°
2026-05-06 14:15 52.31487 4.74713 -1 ft 12 kts 266°
2026-05-06 14:15 52.31481 4.74554 -1 ft 16 kts 268°
2026-05-06 14:16 52.31475 4.74351 -1 ft 20 kts 266°
2026-05-06 14:16 52.31430 4.74164 -1 ft 19 kts 218°
2026-05-06 14:16 52.31292 4.74127 -1 ft 23 kts 182°
2026-05-06 14:16 52.31120 4.74116 -1 ft 26 kts 182°
2026-05-06 14:17 52.30925 4.74094 -1 ft 30 kts 182°
2026-05-06 14:17 52.30734 4.74079 -1 ft 23 kts 183°
2026-05-06 14:17 52.30584 4.74066 -1 ft 20 kts 183°
2026-05-06 14:17 52.30455 4.74055 -1 ft 18 kts 182°
2026-05-06 14:18 52.30402 4.73961 -1 ft 12 kts 264°
2026-05-06 14:18 52.30405 4.73832 -3 ft 12 kts 276°
2026-05-06 14:18 52.30447 4.73757 -3 ft 9 kts
2026-05-06 14:18 52.30515 4.73766 -3 ft 11 kts
2026-05-06 14:19 52.30658 4.73789 -3 ft 31 kts
2026-05-06 14:19 52.31006 4.73817 -1 ft 80 kts
2026-05-06 14:19 52.31762 4.73889 -2 ft 136 kts
2026-05-06 14:19 52.32835 4.73986 231 ft 161 kts
2026-05-06 14:20 52.33948 4.73890 984 ft 159 kts 359°
2026-05-06 14:20 52.35027 4.73715 1749 ft 159 kts 358°
2026-05-06 14:20 52.36174 4.73509 2253 ft 173 kts 358°
2026-05-06 14:20 52.37435 4.73296 2685 ft 191 kts 358°
2026-05-06 14:21 52.38841 4.73076 3026 ft 217 kts 358°
2026-05-06 14:21 52.40434 4.72857 3439 ft 241 kts 358°
2026-05-06 14:21 52.42153 4.72468 4133 ft 255 kts 350°
2026-05-06 14:21 52.43809 4.71389 5071 ft 262 kts 331°
2026-05-06 14:22 52.45205 4.69362 5924 ft 273 kts 314°
2026-05-06 14:22 52.46232 4.66701 6794 ft 281 kts 294°
2026-05-06 14:22 52.46677 4.63622 7695 ft 285 kts 276°
2026-05-06 14:22 52.46658 4.60363 8629 ft 288 kts 269°
2026-05-06 14:23 52.46520 4.57063 9506 ft 291 kts 261°
2026-05-06 14:23 52.45863 4.53915 10346 ft 296 kts 242°
2026-05-06 14:23 52.44570 4.51186 10769 ft 316 kts 222°
2026-05-06 14:23 52.42684 4.49122 11161 ft 334 kts 212°
2026-05-06 14:24 52.40825 4.46791 11723 ft 341 kts 230°
2026-05-06 14:24 52.39570 4.43512 12486 ft 341 kts 249°
2026-05-06 14:24 52.38716 4.39922 13507 ft 336 kts 250°
2026-05-06 14:24 52.37801 4.36436 14224 ft 339 kts 246°
2026-05-06 14:25 52.36767 4.32965 15003 ft 339 kts 244°
2026-05-06 14:25 52.35690 4.29540 15726 ft 341 kts 244°
2026-05-06 14:25 52.34601 4.26039 16258 ft 348 kts 244°
2026-05-06 14:25 52.33513 4.22519 16875 ft 352 kts 244°
2026-05-06 14:26 52.32410 4.18916 17532 ft 356 kts 244°
2026-05-06 14:26 52.31228 4.15346 18182 ft 359 kts 237°
2026-05-06 14:26 52.29728 4.12056 18748 ft 363 kts 233°
2026-05-06 14:26 52.28195 4.08845 19330 ft 365 kts 233°
2026-05-06 14:27 52.26631 4.05572 19929 ft 367 kts 233°
2026-05-06 14:27 52.25057 4.02281 20529 ft 369 kts 233°
2026-05-06 14:27 52.23476 3.98976 21129 ft 370 kts 233°
2026-05-06 14:27 52.21885 3.95653 21704 ft 373 kts 233°
2026-05-06 14:28 52.20280 3.92311 22277 ft 376 kts 233°
2026-05-06 14:28 52.18662 3.88948 22840 ft 379 kts 233°
2026-05-06 14:28 52.17051 3.85609 23388 ft 382 kts 232°
2026-05-06 14:28 52.15405 3.82197 23792 ft 384 kts 232°
2026-05-06 14:29 52.13756 3.78782 23901 ft 382 kts 232°
2026-05-06 14:29 52.12148 3.75452 23919 ft 369 kts 232°
2026-05-06 14:29 52.10573 3.72189 23922 ft 365 kts 233°
2026-05-06 14:29 52.09005 3.68945 23923 ft 364 kts 232°
2026-05-06 14:30 52.07439 3.65709 23924 ft 364 kts 232°
2026-05-06 14:30 52.05870 3.62475 23925 ft 364 kts 232°
2026-05-06 14:30 52.04303 3.59247 23925 ft 364 kts 232°
2026-05-06 14:30 52.02756 3.56062 23930 ft 364 kts 232°
2026-05-06 14:31 52.01183 3.52831 23929 ft 364 kts 232°
2026-05-06 14:31 51.99609 3.49607 23932 ft 365 kts 232°
2026-05-06 14:31 51.98064 3.46345 23929 ft 364 kts 234°
2026-05-06 14:31 51.96563 3.43038 23929 ft 364 kts 234°
2026-05-06 14:32 51.95079 3.39709 23934 ft 364 kts 234°
2026-05-06 14:32 51.93596 3.36374 23934 ft 365 kts 234°
2026-05-06 14:32 51.92109 3.33046 23934 ft 365 kts 234°
2026-05-06 14:32 51.90617 3.29730 23938 ft 365 kts 234°
2026-05-06 14:33 51.89119 3.26420 23942 ft 365 kts 234°
2026-05-06 14:33 51.87634 3.23151 23940 ft 365 kts 234°
2026-05-06 14:33 51.86132 3.19847 23939 ft 365 kts 234°
2026-05-06 14:33 51.84707 3.16459 23938 ft 364 kts 241°
2026-05-06 14:34 51.83544 3.12818 23942 ft 364 kts 243°
2026-05-06 14:34 51.82390 3.09168 23939 ft 364 kts 243°
2026-05-06 14:34 51.81236 3.05529 23944 ft 364 kts 243°
2026-05-06 14:34 51.80080 3.01882 23944 ft 364 kts 243°
2026-05-06 14:35 51.78925 2.98235 23944 ft 364 kts 243°
2026-05-06 14:35 51.77773 2.94595 23941 ft 364 kts 243°
2026-05-06 14:35 51.76620 2.90951 23943 ft 364 kts 243°
2026-05-06 14:35 51.75481 2.87361 23946 ft 365 kts 243°
2026-05-06 14:36 51.74321 2.83722 23947 ft 365 kts 243°
2026-05-06 14:36 51.73157 2.80087 23947 ft 365 kts 243°
2026-05-06 14:36 51.71991 2.76455 23946 ft 365 kts 243°
2026-05-06 14:36 51.70824 2.72824 23946 ft 365 kts 243°
2026-05-06 14:37 51.69665 2.69187 23949 ft 365 kts 245°
2026-05-06 14:37 51.68810 2.65353 23949 ft 364 kts 256°
2026-05-06 14:37 51.68381 2.61328 23949 ft 365 kts 262°
2026-05-06 14:37 51.68028 2.57281 23957 ft 367 kts 261°
2026-05-06 14:38 51.67658 2.53166 23954 ft 385 kts 261°
2026-05-06 14:38 51.67262 2.48803 23958 ft 401 kts 261°
2026-05-06 14:38 51.66848 2.44287 23956 ft 415 kts 261°
2026-05-06 14:38 51.66415 2.39613 23958 ft 427 kts 261°
2026-05-06 14:39 51.65971 2.34844 23951 ft 428 kts 261°
2026-05-06 14:39 51.65526 2.30073 23957 ft 431 kts 261°
2026-05-06 14:39 51.65083 2.25319 23958 ft 429 kts 261°
2026-05-06 14:39 51.64643 2.20585 23961 ft 428 kts 261°
2026-05-06 14:40 51.64208 2.15915 23962 ft 427 kts 261°
2026-05-06 14:40 51.63764 2.11183 23963 ft 427 kts 261°
2026-05-06 14:40 51.63321 2.06458 23961 ft 427 kts 261°
2026-05-06 14:40 51.62889 2.01775 23954 ft 417 kts 261°
2026-05-06 14:41 51.62470 1.97194 23210 ft 415 kts 261°
2026-05-06 14:41 51.62041 1.92538 21885 ft 426 kts 261°
2026-05-06 14:41 51.61469 1.87883 21259 ft 420 kts 254°
2026-05-06 14:41 51.60454 1.83524 20708 ft 413 kts 245°
2026-05-06 14:42 51.58994 1.79632 20117 ft 410 kts 234°
2026-05-06 14:42 51.57175 1.76126 19524 ft 406 kts 230°
2026-05-06 14:42 51.55318 1.72735 18943 ft 403 kts 229°
2026-05-06 14:42 51.53452 1.69378 18357 ft 401 kts 229°
2026-05-06 14:43 51.51594 1.66054 17728 ft 399 kts 229°
2026-05-06 14:43 51.49828 1.62664 17202 ft 393 kts 236°
2026-05-06 14:43 51.48442 1.58918 16677 ft 388 kts 245°
2026-05-06 14:43 51.47453 1.54927 16196 ft 383 kts 251°
2026-05-06 14:44 51.46545 1.50933 15710 ft 379 kts 251°
2026-05-06 14:44 51.45650 1.47040 15201 ft 376 kts 250°
2026-05-06 14:44 51.44742 1.43133 14698 ft 373 kts 249°
2026-05-06 14:45 51.42082 1.36175 14245 ft 361 kts 237°
2026-05-06 14:45 51.40671 1.32838 14170 ft 362 kts 237°
2026-05-06 14:45 51.39246 1.29420 14035 ft 378 kts 237°
2026-05-06 14:45 51.37778 1.25898 13945 ft 382 kts 237°
2026-05-06 14:46 51.36292 1.22349 13974 ft 384 kts 237°
2026-05-06 14:46 51.34792 1.18799 13978 ft 385 kts 237°
2026-05-06 14:46 51.33795 1.16458 13966 ft 385 kts 237°
2026-05-06 14:46 51.32285 1.12924 13971 ft 385 kts 237°
2026-05-06 14:47 51.30776 1.09402 13741 ft 379 kts 237°
2026-05-06 14:47 51.29306 1.05980 13468 ft 368 kts 237°
2026-05-06 14:47 51.27876 1.02654 13204 ft 358 kts 237°
2026-05-06 14:47 51.26041 0.98390 12847 ft 345 kts 237°
2026-05-06 14:48 51.25130 0.96275 12671 ft 340 kts 237°
2026-05-06 14:48 51.23805 0.93204 12412 ft 332 kts 237°
2026-05-06 14:48 51.22509 0.90209 12153 ft 324 kts 237°
2026-05-06 14:48 51.21243 0.87279 11895 ft 317 kts 237°
2026-05-06 14:49 51.20023 0.84449 11636 ft 311 kts 238°
2026-05-06 14:49 51.18810 0.81637 11387 ft 305 kts 238°
2026-05-06 14:49 51.17620 0.78886 11160 ft 299 kts 237°
2026-05-06 14:49 51.16448 0.76185 10917 ft 295 kts 238°
2026-05-06 14:50 51.15321 0.73477 10670 ft 291 kts 245°
2026-05-06 14:50 51.14708 0.70448 10436 ft 287 kts 260°
2026-05-06 14:50 51.14314 0.67342 10110 ft 285 kts 262°
2026-05-06 14:50 51.13941 0.64247 9770 ft 284 kts 261°
2026-05-06 14:51 51.13572 0.61162 9397 ft 283 kts 261°
2026-05-06 14:51 51.13207 0.58090 9032 ft 281 kts 261°
2026-05-06 14:51 51.12843 0.55039 8635 ft 280 kts 262°
2026-05-06 14:51 51.12484 0.51999 8234 ft 278 kts 261°
2026-05-06 14:52 51.12134 0.48986 8024 ft 276 kts 261°
2026-05-06 14:52 51.11791 0.46011 8029 ft 278 kts 261°
2026-05-06 14:52 51.11444 0.42990 8031 ft 278 kts 261°
2026-05-06 14:52 51.11326 0.41968 8028 ft 278 kts 261°
2026-05-06 14:53 51.11270 0.41485 8023 ft 278 kts 261°
2026-05-06 14:53 51.11205 0.40935 8041 ft 277 kts 261°
2026-05-06 14:53 51.10941 0.38016 7982 ft 278 kts 263°
2026-05-06 14:53 51.10607 0.34977 8021 ft 278 kts 261°
2026-05-06 14:54 51.10252 0.31947 8026 ft 278 kts 262°
2026-05-06 14:54 51.09892 0.28923 8026 ft 278 kts 261°
2026-05-06 14:54 51.09531 0.25901 8022 ft 278 kts 262°
2026-05-06 14:54 51.09175 0.22920 8018 ft 278 kts 261°
2026-05-06 14:55 51.08813 0.19898 8014 ft 278 kts 261°
2026-05-06 14:55 51.08450 0.16879 8010 ft 278 kts 262°
2026-05-06 14:55 51.08085 0.13863 8006 ft 278 kts 262°
2026-05-06 14:55 51.07721 0.10842 7976 ft 278 kts 261°
2026-05-06 14:56 51.07356 0.07829 7976 ft 278 kts 261°
2026-05-06 14:56 51.06991 0.04817 7977 ft 278 kts 261°
2026-05-06 14:56 51.06623 0.01799 7976 ft 278 kts 261°
2026-05-06 14:56 51.06255 -0.01212 7976 ft 278 kts 261°
2026-05-06 14:57 51.05886 -0.04227 7970 ft 278 kts 262°
2026-05-06 14:57 51.05517 -0.07237 7977 ft 278 kts 262°
2026-05-06 14:57 51.05147 -0.10246 7872 ft 276 kts 261°
2026-05-06 14:57 51.04787 -0.13151 7707 ft 266 kts 262°
2026-05-06 14:58 51.04429 -0.16001 7507 ft 259 kts 261°
2026-05-06 14:58 51.04080 -0.18736 7338 ft 246 kts 261°
2026-05-06 14:58 51.03739 -0.21358 6977 ft 240 kts 261°
2026-05-06 14:58 51.03402 -0.23940 6556 ft 238 kts 261°
2026-05-06 14:59 51.03068 -0.26499 6124 ft 236 kts 261°
2026-05-06 14:59 51.02737 -0.29042 5693 ft 234 kts 262°
2026-05-06 14:59 51.02422 -0.31455 5290 ft 234 kts 261°
2026-05-06 14:59 51.02103 -0.33887 5003 ft 232 kts 261°
2026-05-06 15:00 51.01779 -0.36373 4760 ft 229 kts 261°
2026-05-06 15:00 51.01468 -0.38838 4427 ft 227 kts 266°
2026-05-06 15:00 51.01651 -0.41214 4185 ft 215 kts 295°
2026-05-06 15:00 51.02268 -0.43317 4026 ft 207 kts 300°
2026-05-06 15:01 51.02935 -0.45325 3786 ft 204 kts 301°
2026-05-06 15:01 51.03603 -0.47303 3512 ft 203 kts 301°
2026-05-06 15:01 51.04263 -0.49282 3203 ft 203 kts 301°
2026-05-06 15:01 51.04917 -0.51260 3024 ft 202 kts 300°
2026-05-06 15:02 51.05573 -0.53240 3021 ft 203 kts 300°
2026-05-06 15:02 51.06237 -0.55222 3017 ft 203 kts 301°
2026-05-06 15:02 51.06910 -0.57199 3017 ft 203 kts 302°
2026-05-06 15:02 51.07573 -0.59172 3020 ft 203 kts 301°
2026-05-06 15:03 51.08341 -0.61039 3009 ft 199 kts 322°
2026-05-06 15:03 51.09563 -0.61788 3013 ft 190 kts
2026-05-06 15:03 51.10688 -0.60838 3017 ft 190 kts 53°
2026-05-06 15:03 51.10982 -0.58839 3016 ft 197 kts 100°
2026-05-06 15:04 51.10520 -0.56758 3031 ft 201 kts 106°
2026-05-06 15:04 51.10175 -0.54617 3023 ft 198 kts 90°
2026-05-06 15:04 51.10223 -0.52447 3034 ft 197 kts 78°
2026-05-06 15:04 51.10461 -0.50304 3028 ft 196 kts 74°
2026-05-06 15:05 51.10747 -0.48182 3027 ft 196 kts 75°
2026-05-06 15:05 51.11043 -0.46065 3020 ft 196 kts 74°
2026-05-06 15:05 51.11340 -0.43948 3033 ft 196 kts 74°
2026-05-06 15:05 51.11639 -0.41824 2908 ft 197 kts 75°
2026-05-06 15:06 51.11931 -0.39735 2699 ft 195 kts 73°
2026-05-06 15:06 51.12224 -0.37648 2459 ft 192 kts 75°
2026-05-06 15:06 51.12513 -0.35581 2175 ft 188 kts 73°
2026-05-06 15:06 51.12785 -0.33627 1912 ft 174 kts 74°
2026-05-06 15:07 51.13039 -0.31804 1693 ft 164 kts 73°
2026-05-06 15:07 51.13281 -0.30062 1471 ft 158 kts 73°
2026-05-06 15:07 51.13514 -0.28392 1230 ft 152 kts 72°
2026-05-06 15:07 51.13741 -0.26761 959 ft 150 kts 72°
2026-05-06 15:08 51.13957 -0.25154 749 ft 149 kts 72°
2026-05-06 15:08 51.14189 -0.23573 563 ft 149 kts 73°
2026-05-06 15:08 51.14410 -0.21953 378 ft 150 kts 73°
2026-05-06 15:08 51.14633 -0.20338 221 ft 148 kts 73°
2026-05-06 15:09 51.14829 -0.18938 215 ft 107 kts 78°
2026-05-06 15:09 51.14945 -0.18108 213 ft 41 kts 76°
2026-05-06 15:09 51.15060 -0.17791 207 ft 30 kts 52°
2026-05-06 15:09 51.15146 -0.17768 205 ft 13 kts 352°
2026-05-06 15:10 51.15162 -0.17771 213 ft 0 kts 354°
2026-05-06 15:11 51.15163 -0.17771 213 ft 1 kts 354°
2026-05-06 15:11 51.15189 -0.17775 205 ft 7 kts 353°
2026-05-06 15:11 51.15261 -0.17747 205 ft 15 kts 64°
2026-05-06 15:11 51.15287 -0.17557 205 ft 19 kts 78°
2026-05-06 15:12 51.15320 -0.17379 208 ft 16 kts 39°
2026-05-06 15:12 51.15432 -0.17402 205 ft 18 kts 347°
2026-05-06 15:12 51.15559 -0.17447 205 ft 16 kts 347°
2026-05-06 15:12 51.15677 -0.17488 206 ft 18 kts 347°
2026-05-06 15:13 51.15747 -0.17539 206 ft 10 kts 300°
2026-05-06 15:13 51.15742 -0.17660 207 ft 9 kts 256°
2026-05-06 15:13 51.15767 -0.17719 205 ft 8 kts 347°
2026-05-06 15:13 51.15801 -0.17730 210 ft 4 kts 348°
2026-05-06 15:14 51.15818 -0.17736 211 ft 1 kts 347°
2026-05-06 15:14 51.15821 -0.17737 205 ft 1 kts 347°
2026-05-06 15:14 51.15827 -0.17740 205 ft 0 kts 347°
2026-05-06 15:16 51.15827 -0.17739 205 ft 0 kts 347°
2026-05-06 15:17 51.15827 -0.17740 205 ft 0 kts 347°